Home   Weather   Sydney   Past weeks
Flag for Australia

Past Weather in Sydney, New South Wales, Australia — September 2018

Now
68 °F

Scattered showers. Broken clouds.


Feels Like: 68 °F
Forecast: 73 / 69 °F
Wind: 15 mph from South

Location: Sydney Airport

Current Time: Feb 20, 2019 at 10:27:58 am

Latest Report: Feb 20, 2019 at 8:30 am


Visibility: N/A

Pressure: 29.86 "Hg

Humidity: 94%

Dew Point: 66 °F

Location of SydneyLocation

September 2018 Weather in Sydney — Graph

°F

High & Low Weather Summary for September 2018

 TemperatureHumidityPressure
High91 °F (Sep 15, 2:30 pm)100% (Sep 7, 11:00 pm)30.42 "Hg (Sep 7, 11:00 pm)
Low46 °F (Sep 3, 4:19 am)9% (Sep 15, 12:50 pm)29.56 "Hg (Sep 15, 2:00 pm)
Average61 °F67%30.11 "Hg
* Reported Sep 1 12:00 am — Sep 30 11:30 pm, Sydney. Weather by CustomWeather, © 2019

Note: Actual official high and low records may vary slightly from our data, if they occured in-between our weather recording intervals... More about our weather records

Advertising

Sydney Weather History for September 1, 2018

Scroll right to see more
 ConditionsComfort  
Time TempWeatherWind HumidityBarometerVisibility
12:00 am
Sat, Sep 1
57 °FClear.10 mph63%29.62 "Hg10 mi
12:30 am55 °FClear.6 mph67%29.62 "Hg10 mi
1:00 am55 °FClear.10 mph67%29.62 "Hg10 mi
1:30 am55 °FClear.8 mph67%29.62 "Hg10 mi
2:00 am54 °FPassing clouds.9 mph72%29.62 "HgN/A
2:30 am54 °FPassing clouds.13 mph72%29.62 "HgN/A
3:00 am54 °FClear.8 mph77%29.62 "Hg10 mi
3:30 am54 °FClear.8 mph72%29.65 "Hg10 mi
4:00 am54 °FClear.6 mph72%29.65 "Hg10 mi
4:30 am52 °FClear.6 mph72%29.65 "Hg10 mi
5:00 am52 °FClear.7 mph77%29.68 "Hg10 mi
5:30 am50 °FPassing clouds.8 mph76%29.68 "HgN/A
6:00 am52 °FPassing clouds.12 mph77%29.71 "HgN/A
6:30 am54 °FPassing clouds.7 mph72%29.71 "HgN/A
7:00 am55 °FPassing clouds.9 mph63%29.71 "HgN/A
7:30 am57 °FPassing clouds.10 mph59%29.74 "HgN/A
8:00 am61 °FPassing clouds.8 mph55%29.74 "HgN/A
8:30 am61 °FPassing clouds.14 mph52%29.74 "HgN/A
9:00 am64 °FPassing clouds.15 mph46%29.74 "HgN/A
9:33 am64 °FPassing clouds.18 mph43%29.77 "HgN/A
10:00 am66 °FPassing clouds.20 mph40%29.77 "HgN/A
10:30 am68 °FSunny.17 mph35%29.77 "Hg10 mi
11:00 am68 °FSunny.17 mph35%29.77 "Hg10 mi
11:30 am68 °FSunny.20 mph35%29.77 "Hg10 mi
12:09 pm70 °FSunny.17 mph35%29.77 "Hg10 mi
12:30 pm70 °FSunny.18 mph35%29.74 "Hg10 mi
1:00 pm72 °FSunny.20 mph29%29.74 "Hg10 mi
1:30 pm70 °FSunny.16 mph31%29.74 "Hg10 mi
2:00 pm68 °FSunny.17 mph33%29.77 "Hg10 mi
2:30 pm70 °FSunny.18 mph31%29.77 "Hg10 mi
3:00 pm68 °FSunny.20 mph33%29.77 "Hg10 mi
3:30 pm68 °FSunny.21 mph33%29.77 "Hg10 mi
4:00 pm66 °FSunny.21 mph35%29.77 "Hg10 mi
4:30 pm66 °FSunny.20 mph37%29.80 "Hg10 mi
5:00 pm64 °FSunny.22 mph40%29.80 "Hg10 mi
5:30 pm63 °FSunny.20 mph45%29.83 "Hg10 mi
6:00 pm63 °FClear.18 mph42%29.83 "Hg10 mi
6:30 pm63 °FClear.23 mph42%29.86 "Hg10 mi
7:00 pm63 °FClear.23 mph42%29.86 "Hg10 mi
7:30 pm61 °FClear.20 mph45%29.86 "Hg10 mi
8:00 pm61 °FClear.16 mph45%29.89 "Hg10 mi
8:30 pm61 °FClear.15 mph45%29.89 "Hg10 mi
9:00 pm61 °FClear.17 mph48%29.92 "Hg10 mi
9:30 pm59 °FClear.12 mph51%29.92 "Hg10 mi
10:00 pm59 °FClear.13 mph51%29.92 "Hg10 mi
10:30 pm59 °FClear.15 mph51%29.92 "Hg10 mi
11:30 pm57 °FClear.13 mph55%29.92 "Hg10 mi
Weather by CustomWeather, © 2019

See weather overview